Colby, KS

5:40 AM CDT on April 23, 2018 (GMT -0500)
Shaltz

Weather History for KCBK - December, 2013

Change the Weather History Date:

Tuesday, December 3, 2013

  Actual Average (KGLD) Record (KGLD)
Temperature  
Mean Temperature 44 °F -  
Max Temperature 62 °F 45 °F 74 °F (1959)
Min Temperature 24 °F 21 °F -4 °F (1919)
Degree Days  
Heating Degree Days 21    
Moisture  
Dew Point 30 °F    
Average Humidity 68    
Maximum Humidity 100    
Minimum Humidity 34    
Precipitation  
Precipitation 0.00 in - - ()
Sea Level Pressure  
Sea Level Pressure 29.57 in    
Wind  
Wind Speed 9 mph (East)    
Max Wind Speed 23 mph    
Max Gust Speed 31 mph    
Visibility 10 miles    
Events      
Averages and records for this station are not official NWS values.
T = Trace of Precipitation, MM = Missing Value Source: NWS Daily Summary

Daily Weather History Graph

Daily Weather History Graph

Search for Another Location

Airport or City:

Astronomy

Dec. 03, 2013 Rise Set
Actual Time 7:47 AM CST 5:20 PM CST
Civil Twilight 7:17 AM CST 5:50 PM CST
Nautical Twilight 6:44 AM CST 6:23 PM CST
Astronomical Twilight 6:11 AM CST 6:56 PM CST
Moon 8:18 AM CST (12/3) 6:26 PM CST (12/3)
Length of Visible Light 10h 32m
Length of Day
9h 33m
New Moon, 1% of the Moon is Illuminated
Dec 3
New Moon
Dec 9
First Quarter
Dec 17
Full
Dec 25
Last Quarter
Jan 1
New

Hourly Weather History & Observations

Time (CST) Temp. Windchill Dew Point Humidity Pressure Visibility Wind Dir Wind Speed Gust Speed Precip Events Conditions
12:15 AM 37.4 °F 32.8 °F 28.4 °F 70% 29.59 in 10.0 mi WSW 5.8 mph - N/A   Scattered Clouds
12:35 AM 37.4 °F 33.8 °F 30.2 °F 75% 29.59 in 10.0 mi WSW 4.6 mph - N/A   Scattered Clouds
12:55 AM 39.2 °F 37.0 °F 30.2 °F 70% 29.58 in 10.0 mi SW 3.5 mph - N/A   Scattered Clouds
1:15 AM 39.2 °F 37.0 °F 30.2 °F 70% 29.57 in 10.0 mi SSW 3.5 mph - N/A   Clear
1:35 AM 37.4 °F 33.8 °F 30.2 °F 75% 29.57 in 10.0 mi WSW 4.6 mph - N/A   Clear
1:55 AM 37.4 °F 32.8 °F 30.2 °F 75% 29.58 in 10.0 mi WSW 5.8 mph - N/A   Clear
2:15 AM 37.4 °F 32.8 °F 30.2 °F 75% 29.58 in 10.0 mi West 5.8 mph - N/A   Clear
2:35 AM 39.2 °F 37.0 °F 30.2 °F 70% 29.57 in 10.0 mi WSW 3.5 mph - N/A   Clear
2:55 AM 41.0 °F - 30.2 °F 65% 29.57 in 10.0 mi Calm Calm - N/A   Clear
3:15 AM 44.6 °F - 30.2 °F 57% 29.57 in 10.0 mi Calm Calm - N/A   Clear
3:35 AM 39.2 °F - 28.4 °F 65% 29.58 in 10.0 mi Calm Calm - N/A   Clear
3:55 AM 48.2 °F - 30.2 °F 50% 29.57 in 10.0 mi Calm Calm - N/A   Clear
4:15 AM 44.6 °F - 30.2 °F 57% 29.57 in 10.0 mi Calm Calm - N/A   Clear
4:35 AM 41.0 °F 39.0 °F 28.4 °F 61% 29.55 in 10.0 mi ESE 3.5 mph - N/A   Clear
4:55 AM 41.0 °F 38.0 °F 28.4 °F 61% 29.54 in 10.0 mi ESE 4.6 mph - N/A   Clear
5:15 AM 41.0 °F 38.0 °F 28.4 °F 61% 29.53 in 10.0 mi East 4.6 mph - N/A   Clear
5:35 AM 39.2 °F - 28.4 °F 65% 29.54 in 10.0 mi Calm Calm - N/A   Clear
5:55 AM 41.0 °F 38.0 °F 28.4 °F 61% 29.53 in 10.0 mi East 4.6 mph - N/A   Clear
6:15 AM 39.2 °F 35.0 °F 28.4 °F 65% 29.52 in 10.0 mi ESE 5.8 mph - N/A   Clear
6:35 AM 39.2 °F 37.0 °F 28.4 °F 65% 29.52 in 10.0 mi SE 3.5 mph - N/A   Clear
6:55 AM 37.4 °F 34.9 °F 28.4 °F 70% 29.53 in 10.0 mi SSE 3.5 mph - N/A   Clear
7:15 AM 37.4 °F - 28.4 °F 70% 29.53 in 10.0 mi Calm Calm - N/A   Clear
7:35 AM 39.2 °F 37.0 °F 28.4 °F 65% 29.54 in 10.0 mi SE 3.5 mph - N/A   Clear
7:55 AM 41.0 °F 39.0 °F 30.2 °F 65% 29.53 in 10.0 mi SE 3.5 mph - N/A   Clear
8:15 AM 41.0 °F 38.0 °F 30.2 °F 65% 29.55 in 10.0 mi SSE 4.6 mph - N/A   Clear
8:35 AM 41.0 °F 37.1 °F 30.2 °F 65% 29.54 in 10.0 mi SE 5.8 mph - N/A   Clear
8:55 AM 42.8 °F 41.1 °F 32.0 °F 66% 29.55 in 10.0 mi SSE 3.5 mph - N/A   Clear
9:15 AM 44.6 °F 40.7 °F 32.0 °F 61% 29.53 in 10.0 mi SE 6.9 mph - N/A   Clear
9:35 AM 50.0 °F - 33.8 °F 54% 29.53 in 10.0 mi SE 6.9 mph - N/A   Clear
9:55 AM 53.6 °F - 33.8 °F 47% 29.53 in 10.0 mi SE 6.9 mph - N/A   Clear
10:15 AM 55.4 °F - 33.8 °F 44% 29.53 in 10.0 mi SE 11.5 mph - N/A   Clear
11:15 AM 59.0 °F - 33.8 °F 39% 29.56 in 10.0 mi SSE 13.8 mph - N/A   Clear
11:35 AM 59.0 °F - 33.8 °F 39% 29.56 in 10.0 mi SSE 12.7 mph - N/A   Clear
11:50 AM 59.0 °F - 33.8 °F 39% 29.55 in 10.0 mi SSE 12.7 mph - N/A   Clear
12:15 PM 59.0 °F - 33.8 °F 39% 29.53 in 10.0 mi SE 13.8 mph 18.4 mph N/A   Clear
12:35 PM 60.8 °F - 33.8 °F 36% 29.52 in 10.0 mi SE 16.1 mph 21.9 mph N/A   Clear
12:55 PM 62.6 °F - 33.8 °F 34% 29.50 in 10.0 mi ESE 16.1 mph 21.9 mph N/A   Clear
1:15 PM 62.6 °F - 33.8 °F 34% 29.50 in 10.0 mi SE 15.0 mph 19.6 mph N/A   Clear
1:35 PM 62.6 °F - 33.8 °F 34% 29.49 in 10.0 mi SE 13.8 mph 20.7 mph N/A   Clear
1:55 PM 62.6 °F - 33.8 °F 34% 29.48 in 10.0 mi SE 12.7 mph - N/A   Clear
2:15 PM 62.6 °F - 33.8 °F 34% 29.48 in 10.0 mi SE 16.1 mph - N/A   Clear
2:35 PM 62.6 °F - 33.8 °F 34% 29.47 in 10.0 mi ESE 15.0 mph 20.7 mph N/A   Clear
2:55 PM 60.8 °F - 33.8 °F 36% 29.47 in 10.0 mi ESE 12.7 mph - N/A   Clear
3:15 PM 51.8 °F - 33.8 °F 50% 29.47 in 10.0 mi NE 21.9 mph 27.6 mph N/A   Clear
3:35 PM 48.2 °F - 35.6 °F 62% 29.48 in 10.0 mi NE 20.7 mph 25.3 mph N/A   Clear
3:55 PM 44.6 °F 37.2 °F 35.6 °F 71% 29.49 in 10.0 mi NE 17.3 mph - N/A   Clear
4:15 PM 44.6 °F 36.9 °F 33.8 °F 66% 29.51 in 10.0 mi NE 18.4 mph - N/A   Clear
4:35 PM 42.8 °F 34.0 °F 33.8 °F 70% 29.53 in 10.0 mi NNE 20.7 mph - N/A   Clear
4:55 PM 39.2 °F 29.3 °F 33.8 °F 81% 29.56 in 10.0 mi NNE 20.7 mph 26.5 mph N/A   Clear
5:15 PM 37.4 °F 27.2 °F 32.0 °F 81% 29.57 in 10.0 mi NNE 19.6 mph - N/A   Scattered Clouds
5:35 PM 35.6 °F 24.2 °F 32.0 °F 87% 29.57 in 10.0 mi NNE 21.9 mph 26.5 mph N/A   Mostly Cloudy
5:55 PM 33.8 °F 22.2 °F 32.0 °F 93% 29.57 in 10.0 mi NNE 20.7 mph 26.5 mph N/A   Overcast
6:15 PM 33.8 °F 21.6 °F 32.0 °F 93% 29.57 in 10.0 mi NNE 23.0 mph 28.8 mph N/A   Overcast
6:35 PM 32.0 °F 19.5 °F 32.0 °F 100% 29.57 in 10.0 mi NNE 21.9 mph - N/A   Overcast
6:55 PM 32.0 °F 19.8 °F 32.0 °F 100% 29.60 in 10.0 mi NNE 20.7 mph 25.3 mph N/A   Overcast
7:15 PM 32.0 °F 19.8 °F 32.0 °F 100% 29.62 in 10.0 mi North 20.7 mph 24.2 mph N/A   Overcast
7:35 PM 32.0 °F 20.8 °F 32.0 °F 100% 29.64 in 7.0 mi NNE 17.3 mph 24.2 mph N/A   Overcast
7:55 PM 32.0 °F 20.5 °F 32.0 °F 100% 29.65 in 7.0 mi North 18.4 mph 24.2 mph N/A   Overcast
8:15 PM 30.2 °F 18.1 °F 30.2 °F 100% 29.66 in 5.0 mi North 18.4 mph 24.2 mph N/A   Overcast
8:35 PM 30.2 °F 17.4 °F 30.2 °F 100% 29.66 in 7.0 mi North 20.7 mph 26.5 mph N/A   Overcast
8:55 PM 30.2 °F 17.8 °F 28.4 °F 93% 29.67 in 10.0 mi North 19.6 mph 27.6 mph N/A   Overcast
9:15 PM 28.4 °F 15.4 °F 26.6 °F 93% 29.68 in 10.0 mi NNW 19.6 mph 25.3 mph N/A   Overcast
9:35 PM 28.4 °F 15.4 °F 24.8 °F 86% 29.68 in 10.0 mi North 19.6 mph 25.3 mph N/A   Overcast
9:55 PM 28.4 °F 15.1 °F 24.8 °F 86% 29.68 in 10.0 mi North 20.7 mph 25.3 mph N/A   Overcast
10:15 PM 26.6 °F 12.7 °F 23.0 °F 86% 29.70 in 10.0 mi NNW 20.7 mph 25.3 mph N/A   Overcast
10:35 PM 26.6 °F 13.4 °F 23.0 °F 86% 29.70 in 10.0 mi North 18.4 mph 25.3 mph N/A   Overcast
10:55 PM 26.6 °F 12.4 °F 23.0 °F 86% 29.71 in 10.0 mi NNW 21.9 mph 26.5 mph N/A   Overcast
11:15 PM 26.6 °F 13.8 °F 23.0 °F 86% 29.71 in 10.0 mi North 17.3 mph 26.5 mph N/A   Overcast
11:35 PM 26.6 °F 13.4 °F 23.0 °F 86% 29.71 in 10.0 mi North 18.4 mph 26.5 mph N/A   Overcast
11:55 PM 24.8 °F 10.7 °F 23.0 °F 93% 29.71 in 7.0 mi North 19.6 mph 31.1 mph N/A   Overcast